Theta_e
279 279 279 279 279 279 279 279 279 279 279 279 279 279 279 279 279 279 279 279 279 278 278 278 278 278 278 278 278 278 279 279 279 279 279 279 279 280 280 280 280 281 281 282 282 282 283 283 284 284 284 285 285 285 285 286 286 286 286 286 286 286
279 279 279 279 279 279 279 279 279 279 279 279 279 279 278 278 278 278 278 278 278 278 277 277 277 277 277 277 278 278 278 278 278 278 278 278 279 279 279 279 279 280 280 280 281 281 282 282 282 283 283 284 284 284 285 285 285 285 286 286 285 286
279 279 279 279 279 279 279 279 279 279 279 279 279 278 278 278 278 278 278 278 277 277 277 277 277 277 277 277 277 277 277 277 277 277 278 278 278 278 278 278 279 279 279 279 280 280 280 281 281 281 282 282 283 283 284 284 284 285 285 285 285 285
279 279 279 279 279 279 279 279 279 279 278 278 278 278 278 278 278 277 277 277 277 277 276 276 276 276 276 276 276 276 276 276 276 277 277 277 277 277 277 278 278 278 278 279 279 279 279 279 280 280 281 281 281 282 282 283 283 284 284 284 284 284
279 279 279 279 279 279 279 279 279 278 278 278 277 277 277 277 277 277 276 276 276 276 276 276 276 276 276 276 276 276 276 276 276 276 276 276 277 277 277 277 277 277 277 278 278 278 278 278 279 279 279 280 280 281 281 281 282 282 282 283 283 283
279 279 279 279 279 279 279 278 278 278 277 277 277 277 276 276 276 276 276 275 275 275 275 275 275 275 275 275 275 275 275 276 276 276 276 276 276 276 276 277 277 277 277 277 277 277 278 278 278 278 278 279 279 279 280 280 280 281 281 281 281 282
279 279 279 279 279 279 278 278 278 277 277 276 276 276 276 276 275 275 275 275 275 275 275 275 275 275 275 275 275 275 275 275 275 275 275 275 276 276 276 276 276 276 276 277 277 277 277 277 277 277 278 278 278 278 278 279 279 279 280 280 280 280
279 279 278 278 279 279 278 278 277 277 277 276 276 276 275 275 275 275 275 274 274 274 274 274 274 274 274 274 274 274 274 275 275 275 275 275 275 275 275 275 275 276 276 276 276 276 276 276 276 277 277 277 277 277 277 278 278 278 279 279 279 279
279 278 278 278 278 279 278 278 277 276 276 276 276 275 275 275 275 274 274 274 274 274 274 274 274 274 274 274 274 274 274 274 274 274 274 275 275 275 275 275 275 275 275 275 275 276 276 276 276 276 276 276 276 277 277 277 277 278 278 278 278 278
280 279 278 278 278 278 278 277 277 276 276 276 275 275 275 275 274 274 274 274 274 274 274 273 273 273 273 273 273 273 273 273 273 274 274 274 274 274 274 274 274 274 274 274 275 275 275 275 275 275 275 276 276 276 276 276 277 277 277 277 278 278
280 279 278 277 277 278 278 277 276 276 276 275 275 275 275 274 274 274 274 274 273 273 273 273 273 273 273 273 273 273 273 273 273 273 273 273 273 273 273 274 274 274 274 274 274 274 274 274 275 275 275 275 275 275 275 276 276 276 276 277 277 277
279 279 278 277 277 277 277 277 276 275 275 275 274 274 274 274 274 274 273 273 273 273 273 273 273 272 272 272 272 272 272 272 272 272 272 272 272 273 273 273 273 273 273 273 274 274 274 274 274 274 274 274 274 274 274 275 275 276 276 276 276 277
279 278 278 278 277 277 277 276 275 275 275 274 274 274 274 274 273 273 273 273 273 273 272 272 272 272 272 271 271 271 271 271 271 271 272 272 272 272 272 272 272 272 272 273 273 273 273 273 273 273 273 273 273 273 273 274 274 275 275 275 276 276
278 278 278 278 277 277 277 276 275 275 274 274 274 274 273 273 273 273 273 272 272 272 272 272 271 271 271 271 271 271 271 271 270 271 271 271 271 271 271 271 272 272 272 272 272 273 273 273 273 273 273 273 273 273 272 273 274 274 275 275 275 276
278 278 278 277 277 277 276 275 275 274 274 274 274 273 273 273 272 272 272 272 272 272 271 271 271 270 270 270 270 270 270 270 270 270 270 270 270 270 271 271 271 271 271 271 272 272 272 272 272 272 272 272 272 272 272 272 273 274 274 274 275 275
278 278 278 278 277 276 275 274 274 274 274 273 273 273 272 272 272 272 272 272 271 271 270 270 270 270 270 269 269 269 269 269 269 269 269 269 270 270 270 270 270 270 271 271 271 272 272 272 272 272 272 272 272 271 271 272 273 273 273 274 274 274
278 278 278 277 276 275 274 274 274 273 273 273 273 272 272 272 272 271 271 271 271 270 270 270 269 269 269 269 269 269 269 269 269 269 269 269 269 269 269 270 270 270 270 270 270 271 271 271 271 271 271 271 271 270 271 271 272 272 273 273 273 273
276 276 276 275 275 274 274 273 273 273 273 273 272 272 271 271 271 271 271 270 270 270 269 269 269 269 269 268 268 268 268 268 268 268 268 268 269 269 269 269 269 269 269 270 270 270 271 271 271 271 271 270 270 270 270 271 271 271 272 272 272 272
275 275 275 274 274 274 273 273 273 273 272 272 272 271 271 271 271 271 270 270 269 269 269 269 269 269 268 268 268 268 268 268 268 268 268 268 268 268 268 268 268 269 269 269 269 269 270 270 270 270 270 270 270 269 269 270 270 270 271 271 271 272
275 274 274 274 273 273 273 273 273 272 272 272 271 271 271 270 270 270 270 269 269 269 268 268 268 268 268 268 268 268 268 267 267 267 267 268 268 268 268 268 268 268 268 268 268 269 269 270 270 270 270 269 269 269 269 269 269 269 270 270 270 270
274 274 273 273 273 273 272 272 272 272 272 271 271 271 270 270 270 270 269 269 269 268 268 268 268 268 268 268 267 267 267 267 267 267 267 267 267 267 267 267 268 268 268 268 268 268 268 269 269 269 269 269 269 268 268 268 268 268 268 268 268 268
274 274 273 273 273 272 272 272 272 271 271 271 271 270 270 269 269 269 269 269 268 268 268 268 268 267 267 267 267 267 267 267 267 267 267 267 267 267 267 267 267 267 267 267 267 267 267 268 268 268 268 268 268 268 267 267 266 267 267 267 266 267
273 273 273 273 272 272 272 271 271 271 271 270 270 270 269 269 269 269 269 268 268 268 268 267 267 267 267 267 267 267 267 266 266 266 266 266 266 266 266 266 267 267 267 267 267 267 267 267 267 267 268 268 268 268 267 266 266 266 266 266 266 266
273 273 272 272 272 271 271 271 271 271 270 270 270 269 269 269 269 269 269 268 268 268 267 267 267 267 267 267 266 267 266 266 266 266 266 266 266 266 266 266 266 266 267 267 266 266 266 266 266 267 267 268 268 268 267 266 266 266 266 266 267 267
273 272 272 272 271 271 271 270 270 270 270 270 269 268 268 269 269 269 268 268 268 267 267 267 267 266 266 266 266 266 266 266 266 266 265 265 265 265 266 266 266 266 266 266 266 266 266 266 266 266 267 268 268 267 267 266 266 266 266 266 266 266
272 272 272 271 271 271 270 270 270 269 269 269 268 268 268 268 268 268 268 268 268 267 267 267 266 266 266 266 266 266 266 266 266 265 265 265 265 265 265 265 265 265 265 266 266 266 266 266 266 267 267 267 267 266 266 266 265 265 266 266 266 266
272 271 271 271 270 270 270 270 269 269 269 269 268 268 268 268 268 268 268 267 267 267 267 267 266 266 266 266 266 266 265 265 265 265 265 265 264 265 265 265 265 265 265 265 265 265 265 266 266 267 267 266 265 265 265 265 264 264 265 265 265 265
271 271 271 271 270 270 270 269 269 269 268 268 268 268 268 268 268 268 268 267 267 266 266 266 266 266 266 265 265 265 265 265 265 265 265 265 264 264 264 264 265 264 264 264 264 265 265 266 266 266 265 264 264 264 264 263 263 264 264 265 265 265
271 271 271 271 270 270 269 269 269 268 268 267 267 267 267 267 268 268 268 267 267 266 266 266 266 266 266 265 265 265 265 265 265 265 265 264 264 264 264 264 264 264 264 264 264 265 265 264 264 264 264 263 263 263 263 263 263 264 264 264 264 264
271 271 271 271 270 270 269 268 268 268 267 267 267 267 267 267 267 267 267 267 267 266 266 265 265 266 266 265 265 265 265 265 264 264 264 264 263 264 264 264 264 264 264 264 264 264 262 262 262 263 263 263 262 262 263 263 263 263 264 264 264 264
271 271 271 270 270 269 269 268 268 267 267 267 267 267 267 267 267 267 267 267 266 266 265 265 265 265 265 265 265 265 265 264 264 264 264 264 263 263 263 263 264 264 263 262 261 261 260 261 262 263 262 262 262 263 263 263 263 263 264 264 263 264
271 271 270 270 269 269 268 268 267 267 267 267 267 266 267 267 267 267 267 267 266 266 265 265 265 265 265 265 265 265 265 264 264 264 264 264 263 263 263 263 263 262 261 260 259 260 260 261 262 262 262 262 262 263 263 263 263 263 263 263 263 264
271 270 270 270 269 268 268 268 268 268 267 267 266 266 266 267 267 267 267 266 266 265 265 265 265 265 264 264 264 264 265 265 264 264 263 263 263 263 263 262 262 262 261 260 260 261 262 262 262 262 262 262 262 263 263 263 262 263 263 262 263 264
270 270 269 269 269 269 268 268 268 268 267 266 266 266 266 266 267 267 267 266 265 265 265 265 264 264 264 264 264 264 264 264 264 264 264 263 263 263 263 262 262 262 261 261 261 261 262 262 262 262 262 262 262 263 262 262 262 263 263 263 263 263
270 269 269 269 269 269 269 268 268 268 267 266 266 266 266 266 266 266 266 266 265 265 265 264 264 264 264 264 264 263 263 263 263 264 264 264 263 263 262 262 262 261 261 261 261 261 262 262 262 262 262 262 263 262 262 261 262 263 263 262 262 262
269 269 269 269 269 269 269 268 268 267 266 266 266 266 266 266 266 266 266 265 265 265 264 264 264 264 264 263 263 263 263 263 263 263 263 263 264 264 263 263 262 261 261 261 261 261 261 261 262 262 262 262 262 262 261 262 263 263 262 262 262 262
270 270 270 269 269 269 269 268 268 267 266 266 266 266 266 266 266 266 265 265 265 264 264 264 264 263 263 263 263 263 263 262 262 262 262 262 262 263 263 263 262 262 261 261 261 261 261 261 261 261 262 262 262 262 261 262 263 263 263 263 263 262
270 270 270 269 269 269 268 268 268 267 266 266 266 266 266 266 266 265 265 265 264 264 264 264 264 263 263 263 263 262 262 262 262 261 261 261 261 261 262 262 262 262 261 261 260 260 261 261 261 261 261 261 261 261 261 262 262 262 263 263 262 262
Wind_Speed
1 1 3 5 7 9 10 12 14 15 16 18 20 21 22 23 24 25 26 27 28 28 28 27 27 27 27 27 27 28 28 28 28 28 28 28 28 28 28 28 27 26 26 25 25 24 24 24 23 23 22 21 20 20 19 19 18 16 15 15 14 14
3 2 3 5 6 8 10 11 13 15 16 18 19 20 22 23 24 26 27 27 27 27 27 26 26 26 27 27 27 28 28 28 28 28 28 28 29 29 29 29 29 28 27 27 26 26 26 25 25 24 24 24 23 22 21 21 20 20 19 18 17 16
5 3 3 5 6 8 10 11 13 15 17 18 19 21 23 24 25 26 27 27 27 27 26 26 26 26 27 27 27 28 28 28 29 29 29 29 29 29 29 29 29 29 29 28 28 28 27 27 27 26 26 25 25 24 23 23 22 22 21 21 20 19
6 5 5 6 7 9 10 12 14 15 17 18 20 21 23 24 25 26 27 27 27 26 26 26 27 27 27 27 28 28 28 28 29 29 29 29 29 29 29 29 29 29 30 29 29 29 28 28 28 28 27 27 26 26 25 25 24 24 23 23 22 22
9 8 7 7 8 9 10 12 13 15 17 18 20 22 23 24 25 25 25 25 24 25 25 26 27 28 28 29 29 29 29 30 30 30 30 30 30 30 30 30 30 29 29 29 29 29 29 29 28 28 28 28 28 28 27 26 26 25 25 25 24 24
11 10 10 9 9 9 10 11 13 14 16 18 20 21 22 23 23 23 23 23 23 24 25 26 27 29 30 30 31 31 31 31 31 31 31 31 31 30 30 30 30 30 30 29 29 29 29 29 28 28 28 28 28 28 28 28 27 26 26 25 25 25
13 12 12 11 10 11 11 12 14 15 17 18 20 21 22 23 23 22 22 23 23 25 26 28 30 31 32 33 33 33 33 33 33 33 33 32 32 32 31 31 31 30 30 30 29 29 28 28 28 28 28 28 28 28 28 28 28 27 27 26 25 25
14 14 13 13 12 12 13 13 14 16 17 19 20 21 22 22 22 22 23 24 25 27 29 31 33 34 35 35 35 35 35 35 34 34 34 34 33 33 32 32 31 31 30 30 29 29 28 28 28 28 28 28 28 28 28 28 28 28 27 27 26 25
16 16 15 14 13 13 13 13 14 16 18 19 21 22 22 22 23 23 24 26 28 30 32 33 35 36 37 37 37 37 36 36 35 34 34 34 34 33 33 32 31 31 30 30 29 29 28 28 27 27 27 27 27 27 28 28 28 28 28 27 27 26
18 18 16 15 14 14 14 14 15 16 18 19 20 21 21 22 23 24 26 28 30 32 34 35 37 38 38 39 39 38 37 36 36 35 34 34 33 33 33 32 32 31 30 30 29 28 28 27 27 27 27 27 27 27 27 28 28 29 29 28 28 27
20 20 18 16 14 14 14 14 15 17 18 19 20 20 22 23 24 26 27 29 31 33 36 37 39 40 40 40 39 39 38 36 35 35 34 33 33 32 32 32 31 31 30 29 28 28 27 26 26 26 26 26 26 27 28 28 29 29 29 29 29 29
20 20 20 18 16 15 15 15 16 18 19 19 20 21 23 24 25 27 28 30 33 35 37 39 40 41 41 41 40 38 37 36 35 34 34 33 32 31 31 31 30 30 29 29 28 27 26 25 25 24 24 24 24 25 27 28 29 29 30 30 30 30
19 19 20 19 17 15 15 16 17 18 19 20 21 23 24 25 26 27 29 31 34 36 38 40 41 41 41 40 39 37 36 35 34 33 33 32 31 31 30 30 29 29 29 28 28 27 26 25 24 23 23 22 22 23 25 27 29 29 30 30 31 32
16 17 18 18 17 16 16 17 18 18 20 21 23 24 25 26 27 28 31 33 35 37 39 41 40 40 39 37 37 36 35 34 33 32 32 31 30 30 29 29 28 28 28 27 27 26 25 24 23 23 22 22 21 22 23 26 28 29 29 30 31 32
16 16 16 16 16 16 17 17 18 20 21 23 24 25 26 27 28 30 32 34 37 39 39 39 38 37 36 35 35 34 33 33 32 31 31 30 29 29 28 28 27 27 26 27 27 26 25 24 24 23 22 22 21 21 22 25 27 28 28 29 30 31
16 16 16 15 16 16 17 18 19 21 23 24 25 26 27 28 29 31 34 36 38 38 38 37 36 35 34 33 33 32 32 31 31 30 30 29 28 28 27 26 26 25 25 25 26 26 25 23 23 23 22 23 22 21 23 26 28 28 28 29 30 31
16 16 16 15 15 16 18 19 21 22 24 24 25 26 27 28 30 33 36 37 37 36 35 34 33 33 32 31 31 30 30 29 29 29 29 28 27 27 26 26 25 25 24 25 25 25 24 23 23 24 23 23 23 22 24 27 28 29 30 30 30 30
15 14 14 14 15 17 19 20 21 23 24 25 26 26 28 30 32 34 36 36 34 33 32 32 32 31 31 30 29 29 28 28 28 28 28 28 27 26 26 25 25 25 24 24 24 25 25 23 23 23 23 23 23 23 24 27 28 30 31 31 31 31
13 13 14 16 17 19 20 21 22 23 25 25 26 27 29 31 33 35 35 33 32 31 30 30 30 30 29 29 28 28 27 27 27 27 27 28 27 26 26 25 25 24 24 24 24 25 25 24 23 23 23 23 22 22 24 27 28 29 31 31 31 31
14 15 17 17 18 19 20 21 23 24 25 26 27 29 30 32 33 34 33 31 29 29 28 28 29 29 28 28 28 27 27 26 27 27 27 27 27 26 26 26 26 25 24 24 24 24 25 25 24 23 23 22 21 21 23 25 27 28 30 30 31 31
16 17 18 18 19 20 21 22 24 24 25 26 28 30 31 32 33 32 30 29 27 27 26 27 27 28 27 27 27 27 26 26 26 26 26 26 27 26 26 26 26 25 24 24 24 24 25 25 24 23 23 22 21 20 20 22 25 27 28 29 30 29
18 18 19 19 20 22 22 23 24 25 26 27 29 31 31 31 32 30 28 27 26 25 25 26 27 27 26 27 27 26 25 26 26 26 26 26 26 26 26 25 26 26 25 24 24 24 24 25 25 24 23 22 20 18 17 19 22 25 26 27 27 27
19 19 20 21 22 23 23 24 25 25 26 28 30 30 30 31 31 29 27 26 24 24 24 25 26 26 26 26 26 26 25 25 25 25 26 26 26 26 26 25 26 26 25 24 24 24 24 24 25 25 22 20 18 15 14 16 19 22 24 26 26 26
20 21 22 22 23 23 23 24 25 26 27 29 29 29 30 30 29 28 26 25 23 23 24 24 25 26 25 25 26 26 24 24 24 25 25 26 26 26 26 25 26 26 26 25 24 24 24 24 25 25 22 19 16 14 13 15 17 20 23 26 25 25
22 22 23 23 23 24 24 25 26 27 28 28 27 28 29 28 28 27 26 24 23 22 23 24 24 25 25 25 25 25 25 24 24 24 24 25 26 26 26 26 26 26 27 26 25 24 24 24 25 24 21 18 17 17 17 16 17 19 21 23 24 26
23 23 23 23 24 24 25 26 27 28 28 28 26 27 28 28 27 27 25 23 23 22 22 23 24 24 25 25 25 25 24 24 24 23 23 24 25 26 26 26 26 27 27 27 27 26 25 25 25 23 20 20 21 21 20 20 20 19 20 23 27 30
23 23 23 23 24 25 26 27 28 28 28 27 26 27 28 27 27 26 24 23 22 22 22 23 23 24 24 24 25 25 24 24 25 24 23 23 24 25 26 26 26 27 27 28 28 28 27 26 26 24 23 24 24 23 24 24 21 21 24 27 30 31
23 24 24 24 24 25 26 27 28 28 27 26 27 27 27 27 27 26 24 23 22 21 22 23 23 23 24 24 24 24 24 24 25 24 23 23 24 25 25 26 26 26 26 27 28 28 28 27 27 27 27 26 26 27 28 26 24 26 29 30 31 31
24 25 24 24 24 24 26 27 28 28 27 26 27 27 27 27 26 25 24 23 22 21 21 23 23 23 23 23 23 24 24 24 24 24 24 23 24 25 25 25 25 25 26 27 27 28 29 29 29 29 29 28 28 29 29 27 28 30 31 31 31 31
25 25 25 25 24 24 25 27 27 26 26 26 27 27 27 26 26 25 24 23 22 21 21 23 24 24 24 23 23 23 23 23 23 24 23 22 23 25 25 25 25 25 25 27 28 29 30 30 30 30 29 28 28 28 28 29 30 30 31 30 30 31
25 25 25 25 24 24 26 26 25 25 26 26 27 27 27 26 26 25 24 23 22 21 22 23 24 24 24 24 23 23 23 23 23 23 22 20 21 23 25 25 25 25 25 26 27 27 28 30 31 30 27 25 25 26 27 28 28 28 28 28 29 34
25 26 26 25 24 24 25 24 24 25 25 25 26 26 26 26 26 25 24 23 22 22 22 23 24 24 24 24 24 24 23 22 22 23 22 21 20 21 22 23 23 22 21 22 22 23 26 29 31 28 25 24 25 25 26 25 25 25 25 26 31 36
26 26 26 25 24 24 25 24 24 24 24 24 25 26 26 26 26 25 24 22 22 22 23 23 24 24 24 24 24 24 24 22 21 20 20 21 21 20 19 19 19 18 16 18 21 25 26 27 27 26 25 25 26 26 25 23 23 24 25 28 33 35
25 25 25 24 24 25 25 25 23 22 22 24 25 25 26 26 26 25 23 22 22 22 23 24 24 23 24 24 23 24 24 24 23 21 19 18 19 19 18 17 17 17 16 17 20 24 26 26 25 25 25 26 26 25 23 22 23 25 27 29 31 31
24 25 25 26 26 26 25 24 22 21 22 24 24 25 26 26 26 25 24 22 22 22 23 23 23 23 23 23 23 23 23 23 24 23 21 19 17 17 16 16 16 16 17 18 20 22 24 24 24 24 24 25 25 24 23 23 25 26 26 27 28 28
26 26 26 26 26 26 25 23 21 20 22 23 25 26 26 26 25 25 24 22 22 22 23 23 23 23 23 22 22 22 22 22 23 23 23 22 20 18 16 14 14 16 17 19 20 21 23 23 23 23 23 24 24 24 23 25 26 24 23 24 26 26
28 27 27 26 26 25 24 22 20 20 22 24 25 26 26 26 25 24 23 22 22 22 22 22 23 23 22 22 21 21 21 21 21 21 21 22 22 22 20 18 16 16 17 19 20 22 23 23 23 22 22 22 23 23 24 26 26 24 23 22 23 24
28 27 26 26 25 25 24 21 19 20 22 24 25 26 26 25 24 24 22 22 22 22 22 22 22 22 21 21 20 20 20 20 20 19 19 19 20 21 21 21 20 18 18 18 20 22 23 22 22 21 21 21 22 22 24 25 26 26 25 24 23 24
Wind_Direction
243 3 22 22 22 18 15 14 10 7 5 3 2 360 359 358 356 355 353 352 351 350 349 348 347 346 344 343 342 342 341 340 339 338 338 337 336 335 335 334 333 332 331 331 330 329 329 328 328 327 328 328 329 329 329 330 331 332 332 333 333 333
259 305 354 1 6 5 4 4 0 359 357 356 355 354 353 352 351 350 350 349 348 348 346 346 345 344 343 341 340 339 338 337 336 335 335 334 333 332 331 331 330 330 329 329 328 327 325 325 324 323 323 323 324 323 323 323 323 324 324 325 326 327
262 289 327 341 346 350 352 351 351 350 349 348 348 347 346 346 345 345 344 344 344 344 343 343 343 343 342 341 340 338 337 336 334 333 332 332 331 330 329 328 328 328 328 327 327 326 325 323 322 321 320 320 320 319 319 319 318 318 318 319 320 320
265 281 303 321 328 336 340 340 341 342 341 342 342 342 342 341 341 340 339 339 339 339 339 340 340 340 339 339 338 337 336 335 334 332 331 330 329 329 328 327 326 326 325 325 325 325 324 323 322 321 319 318 317 316 316 316 316 316 315 315 316 316
265 272 287 300 311 322 327 329 332 334 335 337 337 338 338 338 337 337 336 336 335 336 337 337 337 337 336 336 335 335 335 334 333 332 331 330 329 328 327 326 326 325 324 324 323 323 323 322 322 321 320 318 317 315 315 315 315 315 314 314 314 314
265 268 276 285 295 309 316 320 325 328 331 332 334 335 335 334 334 334 333 334 334 335 335 335 335 335 334 334 333 332 332 331 331 330 329 329 328 327 326 325 325 324 323 323 322 322 321 321 321 320 320 319 318 316 315 314 314 314 314 314 315 315
266 268 272 278 289 302 310 317 321 325 328 330 331 332 331 330 330 330 330 331 332 333 333 333 333 333 333 332 331 330 329 328 328 327 326 326 326 325 325 325 324 323 322 322 322 322 321 321 320 319 319 318 317 316 315 314 313 313 313 313 314 315
268 266 268 274 283 294 303 310 316 320 324 326 327 326 326 326 325 326 327 328 329 331 331 331 331 331 331 330 329 328 327 327 325 324 324 323 323 323 323 323 323 322 322 321 321 321 321 321 320 319 318 317 316 315 314 313 312 312 311 312 313 314
272 268 265 268 274 283 294 302 309 314 318 320 321 320 320 320 320 322 324 325 327 328 328 329 329 329 328 328 327 326 325 324 323 322 321 320 320 320 320 320 320 320 321 321 320 320 320 319 319 319 318 317 315 314 312 312 311 311 311 311 312 313
274 272 268 265 269 278 287 296 303 309 312 313 314 314 314 315 316 318 320 321 323 325 326 327 326 326 326 325 324 324 323 322 320 319 319 318 318 318 318 318 318 318 319 319 319 319 319 318 318 317 317 316 316 314 313 312 311 310 310 311 312 312
273 274 272 268 268 276 285 293 300 305 307 308 309 309 310 311 312 314 316 319 321 323 324 324 324 323 323 322 321 321 320 319 318 318 317 317 317 316 316 316 316 316 316 317 317 317 318 318 317 317 317 317 317 315 314 313 311 310 310 311 311 311
273 275 274 272 270 275 283 290 297 301 303 304 305 306 307 307 308 311 313 317 319 320 321 321 321 321 320 320 319 319 318 318 317 316 316 316 316 315 315 314 314 315 314 314 315 316 317 317 316 316 317 317 317 315 313 312 311 311 311 311 311 310
274 275 276 276 274 274 281 288 294 297 299 301 302 302 303 304 306 309 313 316 318 318 319 318 318 318 318 318 318 317 318 317 316 316 315 315 315 314 314 313 313 313 313 313 314 314 316 317 317 316 316 315 315 313 312 310 309 310 312 312 312 311
272 276 279 279 275 274 281 286 291 295 297 299 299 299 300 302 305 309 312 315 316 316 317 317 317 317 317 317 317 317 317 317 316 316 315 314 314 313 313 313 312 313 313 312 313 313 315 317 317 317 316 315 313 313 311 309 308 310 311 312 312 311
270 275 278 277 273 274 280 285 289 293 296 297 298 298 299 301 305 309 312 314 315 316 317 317 316 317 316 317 317 317 317 317 316 316 315 314 314 314 313 313 312 313 312 312 312 313 315 317 317 316 317 316 315 315 312 308 308 310 311 311 311 311
267 270 271 271 270 273 279 284 289 292 293 295 296 296 298 301 305 310 312 313 315 316 317 316 316 316 316 317 317 317 318 317 317 316 315 315 314 314 313 313 312 312 313 313 313 313 315 318 317 317 318 318 318 318 314 310 310 311 312 311 312 312
265 266 265 266 269 274 281 286 289 291 292 293 294 295 297 302 307 310 311 313 315 316 316 316 316 316 316 318 318 318 318 317 317 317 315 315 315 315 314 314 314 314 314 314 314 314 315 318 319 319 320 320 321 321 316 313 314 314 314 314 314 314
265 264 265 268 274 279 284 288 289 290 291 292 293 295 298 304 308 309 310 313 315 316 315 315 315 316 317 318 318 318 318 318 317 317 316 315 315 316 316 315 315 315 315 316 317 315 315 318 320 320 320 322 323 322 318 316 317 317 316 316 317 316
268 271 274 277 281 284 286 288 289 289 291 291 293 296 300 305 307 308 310 314 315 315 315 315 314 315 316 317 318 318 319 318 318 318 317 317 316 317 317 316 316 317 318 318 319 318 316 318 320 320 321 324 326 324 321 319 319 317 316 317 318 317
274 277 279 280 283 285 286 288 288 289 290 291 293 297 302 305 306 308 311 313 314 315 315 314 313 314 315 316 317 319 320 319 319 319 318 317 317 317 318 318 317 319 320 320 321 321 319 318 320 321 322 326 329 328 323 320 318 317 317 318 320 320
277 278 280 282 284 286 285 286 287 287 289 291 294 298 302 304 305 307 311 313 314 315 314 312 312 313 314 315 316 318 320 319 319 319 318 317 317 317 319 319 318 318 321 322 322 322 320 318 319 322 325 328 332 329 322 319 317 316 318 322 323 322
279 280 282 284 285 284 285 285 285 286 289 291 295 299 302 303 304 307 309 311 313 314 312 311 311 312 313 314 315 317 319 318 318 318 317 317 317 317 318 319 318 319 321 322 322 322 321 320 320 323 328 332 332 328 321 318 318 319 322 325 322 317
280 281 283 284 284 284 284 284 284 286 288 291 295 299 301 301 303 306 308 311 313 312 310 309 310 311 312 313 313 315 317 317 317 317 317 317 317 317 319 320 319 319 320 322 322 322 323 323 321 324 330 334 329 326 326 322 323 325 324 320 316 313
278 280 282 284 283 283 282 282 283 286 288 291 296 299 299 300 302 303 306 310 311 309 308 308 308 309 310 311 312 313 315 316 316 316 317 317 317 317 319 319 319 318 319 320 321 322 323 323 322 324 331 332 325 327 333 331 328 326 321 317 315 313
277 280 283 283 282 282 281 281 284 286 288 292 296 297 296 298 300 301 304 308 308 307 306 305 306 307 308 309 310 312 314 314 314 315 316 316 316 317 317 319 319 319 319 319 320 321 322 322 322 325 329 329 328 333 338 337 333 328 323 316 312 309
279 281 282 281 280 281 281 283 285 286 289 293 296 294 295 296 297 299 303 305 305 304 303 303 304 305 305 307 308 309 311 312 312 314 315 314 315 316 317 318 320 319 319 320 320 321 323 322 321 325 332 336 337 339 340 340 337 330 322 314 311 314
281 280 279 279 279 281 283 285 286 287 290 293 294 292 294 295 295 298 301 302 302 302 301 301 302 302 302 304 306 307 309 310 310 312 313 313 314 315 316 317 319 319 320 320 320 321 322 322 322 331 342 344 341 340 342 343 336 325 320 319 321 324
278 278 278 280 280 282 284 285 285 287 290 292 291 291 292 293 294 297 299 299 300 299 299 299 298 299 300 302 303 305 306 307 308 309 311 313 313 313 314 315 317 318 319 319 319 319 321 324 330 338 345 344 342 344 346 341 328 321 324 327 328 328
278 279 280 282 282 284 285 284 284 287 289 289 290 290 291 291 293 295 296 297 299 298 297 296 295 296 297 299 300 302 303 304 306 307 310 312 311 311 312 314 316 318 318 317 318 321 325 330 333 337 340 343 344 344 339 329 323 325 330 333 331 325
279 280 281 284 285 285 283 282 284 286 286 287 288 289 290 291 292 293 294 295 297 297 295 294 293 294 296 297 298 299 300 301 303 304 307 311 310 309 311 312 314 316 317 319 323 328 330 328 327 331 339 341 339 334 325 321 325 330 332 331 325 314
280 281 283 285 286 285 282 282 283 283 283 285 287 287 288 289 290 291 293 294 296 296 294 292 293 294 295 296 296 297 298 299 301 302 305 307 307 307 310 312 314 318 322 326 329 328 322 316 319 328 335 331 325 322 318 319 326 328 327 324 316 307
281 282 284 287 287 285 282 280 279 280 282 284 285 285 286 287 288 290 292 294 295 295 292 291 292 293 294 295 296 296 296 297 298 300 303 305 305 306 308 311 314 319 322 321 316 309 306 308 315 322 323 317 316 316 315 318 324 325 322 316 309 307
282 283 286 288 286 281 279 278 279 281 283 283 283 283 284 286 287 289 292 294 294 292 291 291 291 292 293 294 295 295 295 295 294 295 299 302 303 303 304 305 307 308 307 301 298 298 301 306 311 314 314 313 315 315 317 321 322 318 314 310 309 312
285 285 285 284 281 278 279 280 282 283 283 281 281 282 283 284 286 289 291 292 291 290 290 290 291 292 292 292 294 295 295 296 295 294 295 297 299 300 301 302 303 301 299 297 298 300 304 307 310 313 314 314 314 317 321 321 316 313 312 311 312 317
283 281 280 279 280 280 281 282 283 283 282 280 279 280 282 284 286 289 291 291 289 288 288 288 290 291 291 293 294 294 294 295 297 298 298 296 295 296 298 300 301 301 302 302 303 304 306 309 312 314 314 313 315 319 320 315 313 316 317 315 316 319
278 278 280 281 281 282 282 283 283 281 279 278 278 279 282 284 286 289 290 289 287 286 286 287 288 289 291 293 294 293 293 294 297 299 302 302 300 299 298 299 302 305 307 308 307 308 309 311 313 315 315 315 317 318 316 312 314 318 317 314 317 321
277 280 281 281 281 282 282 283 283 279 276 276 277 279 281 283 286 288 288 288 286 286 286 286 286 288 290 292 292 292 293 294 296 298 301 304 307 308 307 308 310 313 315 315 314 312 312 313 315 317 317 317 317 316 313 313 315 318 317 316 320 324
279 280 281 282 282 282 282 282 280 276 274 274 276 278 280 283 285 286 287 287 286 285 285 285 286 288 290 291 291 291 292 293 294 297 299 303 307 310 313 316 317 318 319 320 318 316 314 315 317 318 318 318 318 317 316 317 319 321 322 324 326 327